Saint Cloud, MN

1:52 PM CDT on July 26, 2016 (GMT -0500)
Saint Cloud Regional

Weather History for KSTC - June, 2014

Change the Weather History Date:

Friday, June 13, 2014

  Actual Average Record
Temperature  
Mean Temperature 62 °F 65 °F  
Max Temperature 77 °F 77 °F 96 °F (1987)
Min Temperature 46 °F 53 °F 36 °F (1942)
Degree Days  
Heating Degree Days 3 3  
Month to date heating degree days 20 51  
Since 1 June heating degree days 20 51  
Since 1 July heating degree days 9518 8505  
Cooling Degree Days 0 3  
Month to date cooling degree days 26 26  
Year to date cooling degree days 70 51  
Since 1 June cooling degree days 26 26  
Growing Degree Days 10 (Base 50)    
Moisture  
Dew Point 45 °F    
Average Humidity 60    
Maximum Humidity 86    
Minimum Humidity 33    
Precipitation  
Precipitation T in 0.15 in 3.30 in (1981)
Month to date precipitation 1.52 1.73  
Year to date precipitation 17.87 10.04  
Snow  
Snow 0.00 in 0.00 in 0.00 in ()
Month to date snowfall 0.0 0.0  
Since 1 June snowfall 0.0 0.0  
Since 1 July snowfall 75.5 45.7  
Snow Depth 0.00 in    
Sea Level Pressure  
Sea Level Pressure 29.99 in    
Wind  
Wind Speed 3 mph (South)    
Max Wind Speed 10 mph    
Max Gust Speed 15 mph    
Visibility 10 miles    
Events Rain    
T = Trace of Precipitation, MM = Missing Value Source: NWS Daily Summary

Daily Weather History Graph

Daily Weather History Graph

Search for Another Location

Airport or City:

Trip Planner

Search our weather history database for the weather conditions in past years. The results will help you decide how hot, cold, wet, or windy it might be!

Date:

Astronomy

Jun. 13, 2014 Rise Set
Actual Time 5:26 AM CDT 9:06 PM CDT
Civil Twilight 4:48 AM CDT 9:44 PM CDT
Nautical Twilight 3:58 AM CDT 10:34 PM CDT
Astronomical Twilight 2:50 AM CDT 11:43 PM CDT
Moon 9:32 PM CDT (6/13) 6:10 AM CDT (6/13)
Length of Visible Light 16h 55m
Length of Day
15h 39m
Full, 100% of the Moon is Illuminated
Jun 13
Full
Jun 19
Last Quarter
Jun 27
New
Jul 5
First Quarter
Jul 12
Full

Hourly Weather History & Observations

Time (CDT) Temp. Dew Point Humidity Pressure Visibility Wind Dir Wind Speed Gust Speed Precip Events Conditions
12:53 AM 53.1 °F 41.0 °F 64% 30.01 in 10.0 mi West 3.5 mph - N/A   Clear
1:53 AM 50.0 °F 42.1 °F 74% 30.01 in 10.0 mi Calm Calm - N/A   Clear
2:53 AM 48.9 °F 42.1 °F 77% 30.02 in 10.0 mi WNW 3.5 mph - N/A   Clear
3:53 AM 46.9 °F 42.1 °F 83% 30.03 in 10.0 mi Calm Calm - N/A   Clear
4:53 AM 46.9 °F 42.1 °F 83% 30.04 in 10.0 mi Calm Calm - N/A   Clear
5:53 AM 46.9 °F 43.0 °F 86% 30.05 in 10.0 mi Calm Calm - N/A   Clear
6:53 AM 53.1 °F 46.9 °F 80% 30.05 in 10.0 mi Calm Calm - N/A   Clear
7:53 AM 60.1 °F 50.0 °F 69% 30.05 in 10.0 mi Calm Calm - N/A   Clear
8:53 AM 64.9 °F 48.0 °F 54% 30.05 in 10.0 mi Calm Calm - N/A   Clear
9:53 AM 69.8 °F 44.6 °F 40% 30.03 in 10.0 mi Calm Calm - N/A   Clear
10:53 AM 70.0 °F 45.0 °F 41% 30.04 in 10.0 mi SW 3.5 mph - N/A   Clear
11:53 AM 71.6 °F 44.6 °F 38% 30.00 in 10.0 mi Calm Calm - N/A   Clear
12:53 PM 72.0 °F 46.0 °F 40% 30.01 in 10.0 mi SSW 5.8 mph - N/A   Clear
1:53 PM 75.0 °F 45.0 °F 34% 30.01 in 10.0 mi Calm Calm - N/A   Clear
2:53 PM 75.9 °F 45.0 °F 33% 29.99 in 10.0 mi West 6.9 mph - N/A   Clear
3:53 PM 75.2 °F 48.2 °F 38% 29.96 in 10.0 mi West 8.1 mph - N/A   Clear
5:53 PM 73.4 °F 46.4 °F 38% 29.92 in 10.0 mi South 3.5 mph - N/A   Partly Cloudy
6:53 PM 73.9 °F 46.0 °F 37% 29.92 in 10.0 mi SE 5.8 mph - N/A   Clear
7:53 PM 72.0 °F 46.0 °F 40% 29.91 in 10.0 mi ESE 4.6 mph - N/A   Clear
8:53 PM 70.0 °F 46.0 °F 42% 29.88 in 10.0 mi ESE 6.9 mph - N/A   Clear
9:53 PM 66.9 °F 46.9 °F 49% 29.89 in 10.0 mi ESE 5.8 mph - N/A   Clear
10:53 PM 66.0 °F 48.0 °F 52% 29.91 in 10.0 mi ESE 4.6 mph - N/A   Clear
11:53 PM 66.9 °F 46.9 °F 49% 29.93 in 10.0 mi SE 6.9 mph - 0.00 in Rain Light Rain